ZL3GL-4 Weather Reports


time (UTC)temp
C
wind
direction
speed
KPH
gust
KPH
rain 1hr
cm
rain 24hr
cm
rain mn
cm
humidity
%
barometer
mb
20260506112357 10 342 4.8 3.2 0.00 0.00 0.00 99 1018.8
20260506110957 10 274 1.6 0.0 0.00 0.00 0.00 100 1018.9
20260506105550 10 252 0.0 0.0 0.00 0.00 0.00 100 1019.1
20260506104146 10 328 0.0 0.0 0.00 0.00 0.00 99 1019.1
20260506102743 10 20 1.6 3.2 0.00 0.00 0.00 99 1019.4
20260506101338 10 224 0.0 1.6 0.00 0.00 0.00 100 1019.5
20260506095934 10 200 3.2 3.2 0.00 0.00 0.00 100 1019.5
20260506094530 10 222 0.0 0.0 0.00 0.00 0.00 100 1019.6
20260506093127 10 222 0.0 0.0 0.00 0.00 0.00 100 1019.7
20260506091722 10 274 3.2 1.6 0.00 0.00 0.00 100 1019.5
20260506090317 10 322 1.6 1.6 0.00 0.00 0.00 100 1019.6
20260506084913 10 347 4.8 3.2 0.00 0.00 0.00 100 1019.8
20260506083509 10 23 4.8 6.4 0.00 0.00 0.00 99 1019.9
20260506082108 10 264 1.6 0.0 0.00 0.00 0.00 98 1019.9
20260506080703 10 277 1.6 1.6 0.00 0.00 0.00 99 1019.9
20260506072452 10 284 4.8 6.4 0.00 0.00 0.00 100 1020.5
20260506071048 10 285 3.2 3.2 0.00 0.00 0.00 100 1020.6
20260506061434 11 200 4.8 4.8 0.00 0.00 0.00 100 1020.2
20260506050411 11 3 6.4 6.4 0.00 0.00 0.00 100 1020.1
20260506045009 11 333 0.0 0.0 0.00 0.00 0.00 100 1019.8
20260506043603 11 77 0.0 3.2 0.00 0.00 0.00 100 1020.0
20260506042200 11 195 6.4 8.0 0.00 0.00 0.00 100 1019.7
20260506040754 11 165 4.8 6.4 0.00 0.00 0.00 100 1019.8
20260506035349 11 28 9.7 4.8 0.00 0.00 0.00 100 1019.8
20260506033943 11 30 0.0 0.0 0.00 0.00 0.00 100 1019.6
20260506032538 11 60 8.0 4.8 0.00 0.00 0.00 100 1019.6
20260506031138 11 149 3.2 1.6 0.00 0.00 0.00 100 1019.6
20260506025730 11 315 1.6 3.2 0.00 0.00 0.00 100 1019.7
20260506024324 11 156 3.2 1.6 0.00 0.00 0.00 100 1019.3
20260506022919 11 63 4.8 4.8 0.00 0.00 0.00 100 1019.3
20260506021514 11 359 4.8 4.8 0.00 0.00 0.00 100 1019.4
20260506020113 11 301 0.0 0.0 0.00 0.00 0.00 100 1019.3
20260506014711 11 326 3.2 4.8 0.00 0.00 0.00 100 1019.3
20260506013308 11 357 6.4 4.8 0.00 0.00 0.00 100 1019.1
20260506011900 11 27 6.4 6.4 0.00 0.00 0.00 100 1019.4
20260506010500 11 343 6.4 4.8 0.00 0.00 0.00 100 1019.4
20260506005054 11 338 4.8 4.8 0.00 0.00 0.00 100 1019.4
20260506003653 11 335 1.6 1.6 0.00 0.00 0.00 100 1019.1
20260506002250 10 44 3.2 3.2 0.00 0.00 0.00 100 1019.0
20260506000843 9 35 4.8 3.2 0.00 0.00 0.00 100 1019.1
20260505235439 8 100 3.2 3.2 0.00 0.00 0.00 100 1019.4
20260505234037 8 117 0.0 0.0 0.00 0.00 0.00 100 1019.5
20260505232631 8 98 3.2 3.2 0.00 0.00 0.00 100 1019.5
20260505231231 7 257 1.6 3.2 0.00 0.00 0.00 100 1019.5
20260505225828 7 169 4.8 1.6 0.00 0.00 0.00 100 1019.3
20260505224418 7 174 1.6 8.0 0.00 0.00 0.00 100 1019.4
20260505221611 6 131 3.2 4.8 0.00 0.00 0.00 100 1019.5
20260505220210 6 179 6.4 4.8 0.00 0.00 0.00 100 1019.3
20260505214808 5 180 8.0 9.7 0.00 0.00 0.00 100 1019.4
20260505213404 5 228 4.8 4.8 0.00 0.00 0.00 100 1019.3
20260505212003 5 158 3.2 1.6 0.00 0.00 0.00 100 1019.1
20260505210601 4 204 6.4 9.7 0.00 0.00 0.00 100 1018.8
20260505205158 3 193 6.4 6.4 0.00 0.00 0.00 100 1018.8
20260505203757 3 240 3.2 3.2 0.00 0.00 0.00 100 1018.8
20260505202352 3 191 6.4 1.6 0.00 0.00 0.00 100 1018.8
20260505200950 3 222 3.2 6.4 0.00 0.00 0.00 100 1018.8
20260505195547 2 169 0.0 0.0 0.00 0.00 0.00 100 1018.8
20260505194142 2 260 3.2 1.6 0.00 0.00 0.00 100 1018.7
20260505192738 3 245 1.6 0.0 0.00 0.00 0.00 100 1018.7
20260505191335 3 38 0.0 0.0 0.00 0.00 0.00 100 1018.8
20260505185931 3 342 3.2 3.2 0.00 0.00 0.00 100 1018.8
20260505184525 3 122 0.0 0.0 0.00 0.00 0.00 100 1018.8
20260505183120 3 264 0.0 0.0 0.00 0.00 0.00 100 1018.9
20260505181715 3 105 0.0 0.0 0.00 0.00 0.00 100 1019.1
20260505180309 3 158 3.2 3.2 0.00 0.00 0.00 100 1019.5
20260505174906 3 250 1.6 1.6 0.00 0.00 0.00 100 1019.5
20260505173502 3 184 0.0 0.0 0.00 0.00 0.00 100 1019.6
20260505172058 3 212 0.0 4.8 0.00 0.00 0.00 100 1019.5
20260505170654 3 330 1.6 4.8 0.00 0.00 0.00 100 1019.6
20260505165250 4 20 6.4 1.6 0.00 0.00 0.00 100 1019.7
20260505163845 4 316 4.8 3.2 0.00 0.00 0.00 100 1019.9
20260505162441 4 321 4.8 3.2 0.00 0.00 0.00 100 1020.1
20260505161041 4 335 4.8 8.0 0.00 0.00 0.00 100 1020.3
20260505152823 5 35 3.2 1.6 0.00 0.00 0.00 100 1020.5
20260505151420 6 278 1.6 3.2 0.00 0.00 0.00 100 1020.9
20260505140401 6 302 1.6 1.6 0.00 0.00 0.00 100 1022.0
20260505123933 7 18 1.6 4.8 0.00 0.00 0.00 100 1023.0
20260505122533 7 44 0.0 3.2 0.00 0.00 0.00 100 1023.1
20260505121128 7 0 0.0 0.0 0.00 0.00 0.00 100 1023.2
20260505115722 7 13 1.6 0.0 0.00 0.00 0.00 100 1023.4